Regional Weather Roundup
Issued by NWS

Home | Current Version | Previous Version | Text Only | Print | Product List | Glossary Off
Versions: 1 2 3 4 5 6 7 8 9 10 11 12 13 14 15 16 17 18 19 20 21 22 23 24 25 26 27 28 29 30 31 32 33 34 35 36 37 38 39 40 41 42 43 44 45 46 47 48 49 50

000
ASUS43 KMPX 312001
RWRMN
WEATHER ROUNDUP FOR MINNESOTA
NATIONAL WEATHER SERVICE TWIN CITIES/CHANHASSEN MN
300 PM CDT SUN AUG 31 2014


NOTE: "FAIR" INDICATES FEW OR NO CLOUDS BELOW 12,000 FEET WITH NO
SIGNIFICANT WEATHER AND/OR OBSTRUCTIONS TO VISIBILITY. N/A MEANS
CURRENT SKY AND/OR WEATHER CONDITIONS ARE NOT AVAILABLE.

MNZ060>063-068>070-312100-
   Twin Cities Metro

CITY           SKY/WX    TMP DP  RH WIND       PRES   REMARKS
TWIN CITIES    PTSUNNY   84  66  54 S17G25    29.68F
ST PAUL        PTSUNNY   85  69  58 S16G25    29.67F
CRYSTAL        PTSUNNY   85  66  53 S18G29    29.66F
BLAINE         PTSUNNY   88  70  55 S16       29.67F HX  92
LAKEVILLE      PTSUNNY   82  68  61 S15G22    29.69F
EDEN PRAIRIE   PTSUNNY   85  68  56 S13       29.67F
SOUTH ST PAUL  PTSUNNY   85  65  51 S21G28    29.68F
LAKE ELMO      PTSUNNY   82  70  65 S12G22    29.70F
$$
MNZ001>005-007-008-013>017-022>024-027-028-312100-
   Northwest Minnesota

CITY           SKY/WX    TMP DP  RH WIND       PRES   REMARKS
BEMIDJI        CLOUDY    75  65  71 S14G23    29.57F
HALLOCK        PTSUNNY   66  63  88 W7        29.52S
ROSEAU         LGT RAIN  64  61  88 S12       29.52F
WARROAD        CLOUDY    64  61  88 S7        29.53F
THIEF RVR FALL CLOUDY    64  64 100 SW12      29.56S
CROOKSTON      CLOUDY    66  64  94 W13       29.57S
FOSSTON        LGT RAIN  64  63  94 SW10      29.59R
DETROIT LAKES  PTSUNNY   72  64  78 SW10G16   29.62S
MOORHEAD       PTSUNNY   72  70  94 W10       29.61R
PARK RAPIDS    CLOUDY    75  64  68 SW14      29.61S
MAHNOMEN       RAIN      66  64  93 W14       29.60R
$$
MNZ006-009>011-018-025>026-312100-
   North Central Minnesota

CITY           SKY/WX    TMP DP  RH WIND       PRES   REMARKS
BAUDETTE       CLOUDY    65  62  90 VRB6      29.54F
FLAG ISLAND    RAIN      63  61  94 SE15G23   29.52F
INTL FALLS     CLOUDY    68  59  73 VRB7G17   29.61F
WASKISH        CLOUDY    68  63  83 SE7       29.57F
BIG FORK       PTSUNNY   70  61  73 S14G21    29.62F
LONGVILLE      CLOUDY    73  66  78 S14       29.62S
GRAND RAPIDS   CLOUDY    72  63  73 S16G22    29.64F
CRANE LAKE     CLOUDY    70  57  64 S8G17     29.66R
ORR            CLOUDY    66  57  72 SE13G20   29.63S
COOK           CLOUDY    68  59  73 SE14G21   29.68R
WALKER         CLOUDY    72  64  77 S10       29.61S
$$
MNZ012-019>021-037-312100-
   Northeast Minnesota

CITY           SKY/WX    TMP DP  RH WIND       PRES   REMARKS
DULUTH         CLOUDY    65  59  81 E13       29.72F
ELY            PTSUNNY   68  55  64 SE18G25   29.69F
HIBBING        CLOUDY    69  60  73 SE13      29.68S
EVELETH        PTSUNNY   68  59  73 SE10      29.70S
DULUTH HARBOR  CLOUDY    66  63  88 NE14G20   29.71F
TWO HARBORS    CLOUDY    64  57  77 E13       29.72F
SILVER BAY     PTSUNNY   63  61  94 NE10      29.73F
GRAND MARAIS     N/A     60  57  89 NE12G17   29.81F
G MARAIS ARPRT PTSUNNY   61  52  72 E9G20     29.83F
$$
MNZ029>031-032-039>041-046>048-054>057-064-312100-
   West Central Minnesota

CITY           SKY/WX    TMP DP  RH WIND       PRES   REMARKS
FERGUS FALLS   CLOUDY    72  63  73 W10       29.63R
WHEATON        MOSUNNY   73  63  68 W9        29.66R
MORRIS         SUNNY     81  66  61 W14       29.64R
ALEXANDRIA     MOSUNNY   78  68  71 S14       29.65F
ELBOW LAKE     PTSUNNY   77  67  71 W17       29.64R
WADENA         MOSUNNY   77  64  65 S15       29.61F
GLENWOOD       MOSUNNY   79  68  69 S14G20    29.65F
APPLETON       SUNNY     84  63  48 W12       29.63S
BENSON         MOSUNNY   82  70  65 SW13      29.63F
ORTONVILLE     SUNNY     81  64  57 W12       29.65R
MADISON        SUNNY     84  64  51 W14       29.64S
WILLMAR        FAIR      81  66  61 S9G18     29.65F
$$
MNZ033>034-036-042>043-049>051-058-059-312100-
   Central Minnesota

CITY           SKY/WX    TMP DP  RH WIND       PRES   REMARKS
ST CLOUD       LGT RAIN  76  69  79 S10       29.65F
SAUK CENTRE    FAIR      79  66  65 S20       29.65S
PAYNESVILLE    CLOUDY    77  67  70 SE15G22   29.65F
AITKIN         PTSUNNY   77  68  73 S13G18    29.64S
PINE RIVER     CLOUDY    75  66  73 S14G20    29.66S
BRAINERD       PTSUNNY   76  67  73 S18G26    29.64S
STAPLES        CLOUDY    75  66  73 S12G18    29.63S
LONG PRAIRIE   PTSUNNY   77  66  69 S15       29.65F
LITTLE FALLS   PTSUNNY   77  64  65 S9G20     29.64F
LITCHFIELD     CLOUDY    81  72  74 S5        29.66F
BUFFALO        LGT RAIN  80  67  64 S3        29.67F
MAPLE LAKE     CLOUDY    76  71  84 CALM      29.67F
$$
MNZ037-044-045-052-053-312100-
   East Central Minnesota

CITY           SKY/WX    TMP DP  RH WIND       PRES   REMARKS
PRINCETON      CLOUDY    79  70  73 S7        29.68S
MORA           CLOUDY    75  66  73 S8        29.69F
CAMBRIDGE      LGT RAIN  82  66  57 S10       29.65F
RUSH CITY      LGT RAIN  79  69  71 S7        29.69F
MOOSE LAKE     LGT RAIN  72  64  78 CALM      29.67F
HINCKLEY       CLOUDY    77  68  73 S12       29.69S
CLOQUET        CLOUDY    68  63  83 E7        29.69F
MCGREGOR       CLOUDY    73  64  73 S10       29.67S
$$
MNZ071>073-080-081-089-090-097-098-312100-
   Southwest Minnesota

CITY           SKY/WX    TMP DP  RH WIND       PRES   REMARKS
MONTEVIDEO     MOSUNNY   84  70  61 W8G17     29.65S
GRANITE FALLS  MOSUNNY   82  69  65 S14       29.66F
CANBY          SUNNY     83  63  51 W10G20    29.66S
MARSHALL       MOSUNNY   82  66  57 SW13G22   29.66S
REDWOOD FALLS  PTSUNNY   82  67  60 SW15      29.66S
OLIVIA         PTSUNNY   81  68  65 SW12G17   29.65F
PIPESTONE      MOSUNNY   79  66  65 W12       29.71S
WINDOM         CLOUDY    77  64  65 SW13G23   29.71S
WORTHINGTON    PTSUNNY   79  66  65 SW12      29.73S
JACKSON        CLOUDY    77  64  65 S10G18    29.73R
TRACY          PTSUNNY   81  68  65 SW13G18   29.69R
SLAYTON        PTSUNNY   79  67  64 SW14      29.72R
$$
MNZ065>067-074>077-082>085-091>093-312100-
   South Central Minnesota

CITY           SKY/WX    TMP DP  RH WIND       PRES   REMARKS
MANKATO        PTSUNNY   81  66  61 S12G20    29.69F
NEW ULM        LGT RAIN  75  70  83 S8        29.69R
ST JAMES       CLOUDY    81  66  61 S13       29.69S
FAIRMONT       CLOUDY    79  63  57 S12       29.71S
GLENCOE        LGT RAIN  79  67  66 S6        29.67F
FARIBAULT      PTSUNNY   86  63  45 S13G22    29.72F
OWATONNA       MOSUNNY   82  66  57 S12G20    29.73S
WASECA         PTSUNNY   79  63  57 S16       29.74S
ALBERT LEA     PTSUNNY   84  68  58 S15G22    29.74S
$$
MNZ078>079-086>088-094>096-312100-
   Southeast Minnesota

CITY           SKY/WX    TMP DP  RH WIND       PRES   REMARKS
ROCHESTER      MOSUNNY   84  69  60 S16G24    29.78S
RED WING       MOSUNNY   88  66  48 S12G18    29.71F HX  90
STANTON        PTSUNNY   85  68  55 S10G20    29.69F
DODGE CENTER   MOSUNNY   86  70  58 S17       29.75F HX  90
WINONA         MOSUNNY   81  66  61 S6        29.76S
AUSTIN         MOSUNNY   82  70  65 S15       29.76F
PRESTON        MOSUNNY   81  72  74 S12       29.78F
$$
ABBREVIATIONS USED IN REMARKS
   TC - TEMPERATURES IN CELSIUS
  WCI - WIND CHILL INDEX
   HX - HEAT INDEX
  VSB - VISIBILITY
$$


USA.gov is the U.S. government's official web portal to all federal, state and local government web resources and services.